This is the latest recevied weather packets stored in our database for station/object K4GSL. If no packets are shown the sender has not sent any weather packets the latest 10 day(s).
| Time | Temp. | Humidity | Pressure | Rain* | Wind** | Luminosity | Snow |
|---|---|---|---|---|---|---|---|
| 1777815969 | 8.33° C | 99% | 1015.9 hPa | 0 mm | - | 16 W/m² | - |
| 1777815667 | 7.78° C | 99% | 1015.8 hPa | 0 mm | - | 18 W/m² | - |
| 1777815364 | 7.78° C | 99% | 1016 hPa | 0 mm | - | 14 W/m² | - |
| 1777815060 | 7.22° C | 99% | 1015.9 hPa | 0 mm | - | 11 W/m² | - |
| 1777814757 | 7.22° C | 99% | 1016 hPa | 0 mm | - | 10 W/m² | - |
| 1777814454 | 7.22° C | 99% | 1016 hPa | 0 mm | - | 8 W/m² | - |
| 1777814151 | 7.22° C | 99% | 1016 hPa | 0 mm | - | 6 W/m² | - |
| 1777813848 | 7.22° C | 99% | 1016 hPa | 0 mm | - | 4 W/m² | - |
| 1777813545 | 7.22° C | 99% | 1015.9 hPa | 0 mm | - | 3 W/m² | - |
| 1777813243 | 7.22° C | 99% | 1015.8 hPa | 0 mm | - | 1 W/m² | - |
| 1777812940 | 7.22° C | 99% | 1015.8 hPa | 0 mm | - | 1 W/m² | - |
| 1777812638 | 7.22° C | 99% | 1015.9 hPa | 0 mm | - | 0 W/m² | - |
| 1777812334 | 7.22° C | 99% | 1015.9 hPa | 0 mm | - | 0 W/m² | - |
| 1777812032 | 7.22° C | 99% | 1015.9 hPa | 0 mm | - | 0 W/m² | - |
| 1777811731 | 7.22° C | 99% | 1015.8 hPa | 0 mm | - | 0 W/m² | - |
| 1777811427 | 7.22° C | 99% | 1015.7 hPa | 0 mm | - | 0 W/m² | - |
| 1777811123 | 7.78° C | 99% | 1015.9 hPa | 0 mm | - | 0 W/m² | - |
| 1777810821 | 7.78° C | 99% | 1016 hPa | 0 mm | - | 0 W/m² | - |
| 1777810517 | 7.78° C | 99% | 1016.2 hPa | 0 mm | - | 0 W/m² | - |
| 1777810214 | 7.78° C | 99% | 1015.9 hPa | 0 mm | - | 0 W/m² | - |
| 1777809910 | 7.78° C | 99% | 1015.9 hPa | 0 mm | - | 0 W/m² | - |
| 1777809609 | 7.78° C | 99% | 1016.1 hPa | 0 mm | - | 0 W/m² | - |
| 1777809306 | 7.78° C | 99% | 1016.1 hPa | 0 mm | - | 0 W/m² | - |
| 1777809003 | 7.78° C | 99% | 1016.1 hPa | 0 mm | - | 0 W/m² | - |
| 1777808700 | 7.78° C | 99% | 1016 hPa | 0 mm | - | 0 W/m² | - |
* Rain latest hour (hover to see other rain measurements)
** Current wind speed in m/s (hover to see current wind gust speed)